[[{"header":{"parameterUnit":"m.s-1","parameterCategory":1,"la1":30.2991,"la2":30.254,"lo1":-89.0895,"lo2":-89.0444,"dy":0.0017,"dx":0.0017,"nx":28,"ny":28,"refTime":"2025-03-15T03:00:00:Z","depth":0,"parameterNumber":2,"parameterNumberName":"U-component_of_WINDS"},"data":[0,0,0,0,0,0,0,0,0,0,0,0,0,0,0,0,0,0,0,0,0,0,0,0,0,0,0,0,0,0,0,0,0,0,0,0,0,0,0,0,0,0,0,0,0,0,0,0,0,0,0,0,0,0,0,0,0,0,-3.4337,-3.4339,0,-3.4485,-3.4486,-3.4488,-3.4552,-3.4551,-3.4551,-3.4551,-3.47,-3.4704,-3.4708,0,0,0,0,0,0,0,0,0,0,0,0,0,-3.4108,-3.4112,-3.4337,-3.4339,-3.4341,-3.4485,-3.4487,-3.4489,-3.4552,-3.4551,-3.4551,-3.4551,-3.4698,-3.4703,-3.4708,0,0,0,0,0,0,0,0,0,0,0,0,0,-3.4227,-3.4113,-3.4337,-3.439,-3.4396,-3.4484,-3.4487,-3.4489,-3.4552,-3.4551,-3.4551,-3.4551,-3.4697,-3.4703,-3.4709,-3.4755,0,0,-3.4728,-3.4731,0,0,0,0,0,0,0,0,-3.422,-3.4235,-3.438,-3.4386,-3.4393,-3.4499,-3.4461,-3.4578,-3.4552,-3.4492,-3.4551,-3.455,-3.4633,-3.4645,-3.4673,-3.4762,-3.4769,-3.4729,-3.4733,-3.4735,-3.4737,0,0,0,0,0,0,0,-3.4212,-3.4229,-3.4395,-3.4382,-3.439,-3.4405,-3.4422,-3.4483,-3.4563,-3.4498,-3.4502,-3.4519,-3.4637,-3.4667,-3.4677,-3.4771,-3.4729,-3.4734,-3.4738,-3.4741,-3.4906,-3.4907,0,0,0,0,0,0,-3.4195,-3.4222,-3.4391,-3.44,-3.4304,-3.441,-3.4428,-3.4466,-3.4563,-3.4577,-3.4519,-3.4522,-3.4656,-3.467,-3.4683,-3.4744,-3.4735,-3.4741,-3.4745,-3.4905,-3.4906,-3.4907,0,0,0,0,0,0,-3.419,-3.4209,-3.4385,-3.4312,-3.4336,-3.4414,-3.4456,-3.4469,-3.4499,-3.4579,-3.4593,-3.4536,-3.4657,-3.4674,-3.4737,-3.475,-3.4744,-3.475,-3.4905,-3.4906,-3.4906,-3.4865,0,0,0,0,0,0,-3.4183,-3.4207,-3.4226,-3.4312,-3.4339,-3.4437,-3.4456,-3.4472,-3.451,-3.4514,-3.4598,-3.4612,-3.4658,-3.4727,-3.4743,-3.4758,-3.4755,-3.4904,-3.4905,-3.4906,-3.4866,-3.4865,-3.4864,0,0,0,0,0,-3.4175,-3.4208,-3.4226,-3.4246,-3.4364,-3.4438,-3.4453,-3.4506,-3.4511,-3.453,-3.4582,-3.4609,-3.4746,-3.4733,-3.4752,-3.4769,-3.4903,-3.4905,-3.4906,-3.4866,-3.4865,-3.4864,0,0,0,0,0,0,-3.412,-3.422,-3.4242,-3.4304,-3.4362,-3.4448,-3.4474,-3.4503,-3.456,-3.4561,-3.4624,-3.4643,-3.47,-3.4741,-3.4725,-3.4819,-3.4827,-3.4832,-3.479,-3.479,-3.4789,-3.4777,-3.476,0,0,0,0,0,-3.4115,-3.4167,-3.4251,-3.4298,-3.4326,-3.4395,-3.4429,-3.4465,-3.4527,-3.4551,-3.4608,-3.4666,-3.4723,-3.4758,-3.4815,-3.4872,-3.4891,-3.4893,-3.4892,-3.4891,-3.4894,-3.4928,-3.493,-3.4911,-3.4911,-3.4911,0,0,-3.4106,-3.4167,-3.4196,-3.4289,-3.4338,-3.4389,-3.4415,-3.4468,-3.4507,-3.4559,-3.4623,-3.4666,-3.4736,-3.4797,-3.4826,-3.4832,-3.4904,-3.4892,-3.4891,-3.4895,-3.493,-3.4931,-3.4933,-3.4912,-3.4912,-3.4912,0,0,-3.4115,-3.4167,-3.4212,-3.426,-3.4335,-3.438,-3.4391,-3.4473,-3.4504,-3.4569,-3.461,-3.4656,-3.4752,-3.48,-3.4837,-3.4866,-3.4893,-3.4882,-3.4876,-3.4909,-3.491,-3.4912,-3.4922,-3.4925,-3.4886,-3.4885,-3.4885,0,-3.4094,-3.4174,-3.4231,-3.4283,-3.4322,-3.4373,-3.4418,-3.4463,-3.4551,-3.4577,-3.4583,-3.4705,-3.4755,-3.4828,-3.4835,-3.4863,-3.4877,-3.4873,-3.4905,-3.4908,-3.491,-3.4921,-3.4924,-3.4884,-3.4884,-3.4884,-3.4884,0,-3.4144,-3.4199,-3.4227,-3.4312,-3.4355,-3.4403,-3.4467,-3.4503,-3.4535,-3.458,-3.4646,-3.4708,-3.4778,-3.4798,-3.483,-3.4876,-3.4878,-3.4893,-3.4903,-3.4909,-3.492,-3.4924,-3.4881,-3.4882,-3.4882,-3.4883,0,0,-3.4123,-3.424,-3.4249,-3.4288,-3.4374,-3.4418,-3.4468,-3.4537,-3.4568,-3.4627,-3.4671,-3.4751,-3.4767,-3.4809,-3.4846,-3.4875,-3.4893,-3.4887,-3.489,-3.4886,-3.4948,-3.4936,-3.494,-3.4912,-3.4913,-3.4914,-3.4943,0,-3.4145,-3.4238,-3.4291,-3.4362,-3.4414,-3.4463,-3.4507,-3.4564,-3.4607,-3.4657,-3.4705,-3.4761,-3.4777,-3.4803,-3.4833,-3.4885,-3.4907,-3.4883,-3.4954,-3.4955,-3.4935,-3.4945,-3.4932,-3.4956,-3.4947,-3.4948,-3.4949,0,-3.4182,-3.4241,-3.4318,-3.4399,-3.4422,-3.4461,-3.4529,-3.4576,-3.4642,-3.4672,-3.4719,-3.4756,-3.4811,-3.4816,-3.4893,-3.4876,-3.4908,-3.4938,-3.494,-3.4948,-3.4952,-3.4954,-3.4965,-3.4969,-3.4956,-3.4955,-3.4955,0,-3.4159,-3.4258,-3.4317,-3.4349,-3.4445,-3.4471,-3.4512,-3.4577,-3.4616,-3.4675,-3.4701,-3.4765,-3.48,-3.4849,-3.4903,-3.4902,-3.4975,-3.4984,-3.5001,-3.4999,-3.5014,-3.5012,-3.503,-3.5034,-3.5034,-3.5034,-3.5034,0,-3.4177,-3.4222,-3.4308,-3.4344,-3.4396,-3.4456,-3.4506,-3.4551,-3.4609,-3.4654,-3.47,-3.4742,-3.4811,-3.4861,-3.4903,-3.4961,-3.4976,-3.5001,-3.5012,-3.4997,-3.4994,-3.5019,-3.5019,-3.5035,-3.5035,-3.5035,-3.5034,0,-3.4161,-3.422,-3.4288,-3.4373,-3.4395,-3.443,-3.4502,-3.4539,-3.4585,-3.4642,-3.4659,-3.4731,-3.4792,-3.4851,-3.4933,-3.4962,-3.5019,-3.5033,-3.4997,-3.5003,-3.5016,-3.5014,-3.5051,-3.5059,-3.5057,-3.5057,-3.5057,0,-3.4169,-3.4205,-3.4294,-3.4328,-3.4368,-3.4422,-3.4462,-3.4522,-3.4562,-3.464,-3.4667,-3.4732,-3.4788,-3.4883,-3.4943,-3.5006,-3.5022,-3.503,-3.5032,-3.5016,-3.5022,-3.502,-3.5024,-3.5029,-3.5029,-3.5028,-3.5028,0,-3.4176,-3.4204,-3.426,-3.4326,-3.4372,-3.4427,-3.4484,-3.4509,-3.458,-3.4622,-3.4686,-3.4728,-3.4813,-3.4877,-3.4947,-3.4989,-3.502,-3.5027,-3.5035,-3.502,-3.4998,-3.501,-3.4993,-3.5026,-3.5026,-3.5027,-3.5027,-3.5027,-3.4173,-3.4207,-3.4275,-3.4336,-3.4385,-3.4437,-3.4476,-3.4527,-3.4581,-3.4655,-3.4687,-3.4751,-3.4817,-3.4915,-3.4956,-3.5007,-3.5015,-3.5025,-3.5028,-3.5029,-3.5026,-3.4989,-3.502,-3.502,-3.502,-3.502,-3.502,0,-3.4183,-3.423,-3.4285,-3.4363,-3.441,-3.4437,-3.45,-3.4538,-3.4595,-3.4653,-3.4707,-3.478,-3.4843,-3.4907,-3.4973,-3.5002,-3.5018,-3.5017,-3.5016,-3.5025,-3.5016,-3.5003,-3.5003,-3.5003,-3.5003,-3.5003,-3.5003,-3.5003,-3.4194,-3.4254,-3.429,-3.4374,-3.442,-3.4484,-3.4518,-3.4566,-3.4614,-3.4694,-3.4746,-3.4788,-3.4849,-3.492,-3.4978,-3.4996,-3.5018,-3.5013,-3.5034,-3.5024,-3.5025,-3.5026,-3.5015,-3.5017,-3.5017,-3.5039,-3.5039,-3.5039]},{"header":{"parameterUnit":"m.s-1","parameterCategory":1,"la1":30.2991,"la2":30.254,"lo1":-89.0895,"lo2":-89.0444,"dy":0.0017,"dx":0.0017,"nx":28,"ny":28,"refTime":"2025-03-15T03:00:00:Z","depth":0,"parameterNumber":3,"parameterNumberName":"V-component_of_WINDS"},"data":[0,0,0,0,0,0,0,0,0,0,0,0,0,0,0,0,0,0,0,0,0,0,0,0,0,0,0,0,0,0,0,0,0,0,0,0,0,0,0,0,0,0,0,0,0,0,0,0,0,0,0,0,0,0,0,0,0,0,10.1274,10.1276,0,10.1416,10.1417,10.1419,10.138,10.1377,10.1374,10.1371,10.1506,10.1512,10.1518,0,0,0,0,0,0,0,0,0,0,0,0,0,10.0961,10.0967,10.1274,10.1276,10.1278,10.1416,10.1418,10.1419,10.138,10.1377,10.1373,10.137,10.1503,10.1511,10.1518,0,0,0,0,0,0,0,0,0,0,0,0,0,10.1099,10.0969,10.1274,10.1275,10.1276,10.1415,10.1418,10.142,10.1381,10.1377,10.1372,10.1368,10.1501,10.151,10.1519,10.1662,0,0,10.1548,10.1552,0,0,0,0,0,0,0,0,10.1091,10.111,10.1273,10.1275,10.1277,10.1376,10.1356,10.1501,10.1382,10.1341,10.1371,10.1366,10.1465,10.1477,10.1513,10.1668,10.1674,10.1549,10.1554,10.1558,10.1561,0,0,0,0,0,0,0,10.1082,10.1104,10.133,10.1275,10.1278,10.1266,10.1281,10.1383,10.1425,10.1344,10.1342,10.136,10.1465,10.1504,10.1516,10.1676,10.1548,10.1557,10.1562,10.1566,10.196,10.1965,0,0,0,0,0,0,10.1072,10.1096,10.1325,10.1334,10.1172,10.1275,10.1291,10.1348,10.1424,10.1431,10.1363,10.1357,10.149,10.1505,10.152,10.1696,10.1558,10.1567,10.1572,10.1955,10.1961,10.1966,0,0,0,0,0,0,10.1065,10.1093,10.1319,10.1215,10.1243,10.1285,10.1349,10.1353,10.1392,10.1438,10.1444,10.1396,10.1487,10.1507,10.1629,10.17,10.1571,10.158,10.1949,10.1957,10.1964,10.2046,0,0,0,0,0,0,10.1056,10.109,10.1147,10.1216,10.1249,10.1429,10.1353,10.1359,10.141,10.1403,10.147,10.1477,10.1485,10.1615,10.1638,10.171,10.1587,10.1943,10.1953,10.1961,10.2038,10.2056,10.2071,0,0,0,0,0,10.1045,10.1161,10.115,10.1178,10.132,10.1433,10.1451,10.1461,10.1415,10.1472,10.1502,10.1475,10.1688,10.1628,10.1653,10.173,10.1939,10.195,10.1961,10.203,10.2052,10.2071,0,0,0,0,0,0,10.1093,10.117,10.1158,10.1301,10.1361,10.1426,10.1497,10.1483,10.1555,10.1546,10.1552,10.1567,10.1693,10.1723,10.1655,10.1874,10.1806,10.1823,10.185,10.1872,10.1888,10.1879,10.1595,0,0,0,0,0,10.1121,10.121,10.127,10.1389,10.1421,10.1454,10.1503,10.1507,10.1568,10.1592,10.1631,10.1689,10.1769,10.1821,10.1897,10.2041,10.2056,10.2106,10.2123,10.2136,10.2151,10.2233,10.2257,10.2002,10.2002,10.2002,0,0,10.1178,10.1231,10.1285,10.1401,10.1448,10.1538,10.1476,10.1571,10.1638,10.1605,10.1725,10.1756,10.182,10.1955,10.2016,10.1984,10.2225,10.215,10.2161,10.2168,10.2247,10.2271,10.2292,10.201,10.2008,10.2007,0,0,10.1329,10.1377,10.1485,10.1535,10.1609,10.1631,10.1657,10.1726,10.1747,10.1868,10.1847,10.1923,10.2061,10.2109,10.2152,10.2326,10.2305,10.235,10.2438,10.2518,10.2538,10.2556,10.2621,10.2644,10.2364,10.2364,10.2364,0,10.1389,10.1527,10.154,10.1641,10.1693,10.1673,10.1781,10.1827,10.1921,10.1957,10.1919,10.2096,10.2137,10.2285,10.2328,10.2362,10.2392,10.2343,10.2535,10.2553,10.2569,10.2632,10.2656,10.2369,10.2369,10.2368,10.2368,0,10.16,10.1695,10.1772,10.187,10.193,10.2033,10.2061,10.2119,10.2118,10.2144,10.2269,10.2319,10.2407,10.2441,10.2438,10.259,10.2568,10.2533,10.2466,10.2599,10.2658,10.2681,10.2377,10.2375,10.2374,10.2372,0,0,10.1783,10.1891,10.1919,10.1965,10.2048,10.2121,10.2223,10.2314,10.2366,10.2431,10.2518,10.2637,10.2607,10.2655,10.2657,10.2727,10.2866,10.2683,10.2685,10.2718,10.304,10.3068,10.3096,10.2852,10.2857,10.286,10.3035,0,10.1944,10.213,10.2147,10.2313,10.2402,10.2386,10.2476,10.2535,10.2562,10.264,10.2667,10.2754,10.2705,10.2735,10.2804,10.2835,10.2931,10.2822,10.2933,10.2936,10.292,10.3126,10.3155,10.3318,10.3058,10.3062,10.3065,0,10.2156,10.2235,10.2412,10.2487,10.2525,10.2606,10.2693,10.2767,10.2834,10.2849,10.2906,10.29,10.3005,10.2933,10.3077,10.3003,10.3049,10.3071,10.3078,10.309,10.301,10.3146,10.337,10.3396,10.31,10.3097,10.3095,0,10.2277,10.2426,10.2553,10.2592,10.2681,10.2739,10.2778,10.2841,10.2896,10.2971,10.3007,10.309,10.3136,10.32,10.3217,10.3163,10.3362,10.3291,10.3377,10.3378,10.3421,10.3419,10.3659,10.3447,10.3446,10.3446,10.3445,0,10.2456,10.2566,10.261,10.2688,10.281,10.2827,10.2947,10.2982,10.3039,10.3123,10.3111,10.3188,10.3205,10.3285,10.3298,10.3418,10.3437,10.3452,10.3455,10.3455,10.3454,10.3487,10.3477,10.3452,10.3451,10.3449,10.3448,0,10.2612,10.2646,10.2784,10.2859,10.2881,10.2968,10.3031,10.3105,10.3132,10.3238,10.3263,10.3304,10.3399,10.3422,10.3533,10.3542,10.3685,10.3674,10.3664,10.3664,10.3751,10.3744,10.4022,10.4061,10.3821,10.3823,10.3825,0,10.2726,10.2811,10.2898,10.2956,10.2999,10.3091,10.3149,10.3168,10.3229,10.3315,10.3379,10.3473,10.355,10.3702,10.374,10.3825,10.3819,10.3911,10.3832,10.3831,10.3825,10.3821,10.3831,10.3926,10.3929,10.3931,10.3933,0,10.2925,10.2939,10.3026,10.312,10.3191,10.3264,10.3334,10.3381,10.341,10.3478,10.3578,10.3639,10.3756,10.385,10.3937,10.3974,10.3959,10.3958,10.3983,10.3985,10.3978,10.3987,10.3708,10.3951,10.3949,10.3948,10.3947,10.3946,10.3066,10.3143,10.3218,10.3316,10.3372,10.3439,10.3515,10.3553,10.3638,10.3739,10.3744,10.3853,10.3919,10.4036,10.4078,10.4163,10.4134,10.417,10.4179,10.4189,10.4199,10.3963,10.4178,10.4177,10.4177,10.4176,10.4176,0,10.3268,10.3317,10.3407,10.3509,10.3586,10.357,10.3647,10.3712,10.381,10.3875,10.3953,10.4069,10.4162,10.4208,10.43,10.4358,10.4354,10.4382,10.4379,10.4389,10.4216,10.4188,10.4384,10.4384,10.4384,10.4384,10.4384,10.4384,10.3383,10.3514,10.3537,10.3696,10.3742,10.3854,10.39,10.3961,10.4015,10.4147,10.4226,10.4257,10.4315,10.4412,10.4496,10.4507,10.4542,10.4574,10.4582,10.4421,10.44,10.438,10.4353,10.4581,10.4581,10.4748,10.4749,10.475]}]]